Find Starlink 31904

NORAD ID: 59657 Int'l Des: 2024-084 Owner: SPXS Country: US Constellation: starlink operational
LEOCIRCULAR

Current View

Loading 3D Globe...

About Starlink 31904

Starlink 31904 (NORAD 59657) is a starlink constellation satellite (v2 mini) launched May 6, 2024 by SPXS of US. It operates in LEO, CIRCULAR orbit with a mass of 730.00 kg.

About Starlink 31904

Description loading...

Upcoming Passes

Passes for default location (London). Set your location on the main map for personalized predictions.

Altitude History

Loading altitude history...

Two-Line Element Set

1 59657U 24084D 26174.68946625 .00001649 00000-0 69454-4 0 9998
2 59657 43.0028 163.2408 0001242 271.7882 88.2827 15.27570916120583
Epoch: Jun 23, 2026 • Age: 32 hours

Current Status

Altitude 485.6 km
Velocity 7.62 km/s
Sub-Earth Point -14.32°S, 66.12°E
Launch Date May 6, 2024
Age 2.1 years
Type internet

Technical Details

Classification Payload
Mass 730.00 kg
Dry Mass 700.00 kg
Total Mass 730.00 kg
Length 0.30 m
Diameter 4.10 m
Span 29.00 m
Shape Box + pan
Manufacturer SPXS
Bus Type Starlink V2M
Phase Status In Orbit
Owner/State SPXS/US

Most Searched